Tracking 27086 objects as of 22-Mar-2023
HD Live streaming from Space Station
objects crossing your sky now

COSMOS 1818 COOLANT

Track COSMOS 1818 COOLANT now!
10-day predictions


NORAD ID: 36935
Int'l Code: 1987-011P
Perigee: 772.1 km
Apogee: 788.6 km
Inclination: 65.0 °
Period: 100.3 minutes
Semi major axis: 7151 km
RCS: 0.0035 m2 (small)
Launch date: February 1, 1987
Source: Commonwealth of Independent States (former USSR) (CIS)
Launch site: TYURATAM MISSILE AND SPACE COMPLEX (TTMTR)

Note: This is SATELLITE DEBRIS
Your satellite tracking list
Your tracking list is empty




NASA's NSSDC Master Catalog

Two Line Element Set (TLE):
1 36935U 87011P   23077.84084386  .00001486  00000-0  54953-3 0  9991
2 36935  65.0087 284.4646 0011580 278.3058  81.6715 14.35555015171052
Source of the keplerian elements: AFSPC